| time (UTC) | temp C | wind direction | speed KPH | gust KPH | rain 1hr cm | rain 24hr cm | rain mn cm | humidity % | barometer mb |
| 20260506014106 | 23 | 277 | 0.0 | 1.6 | 0.00 | 0.00 | 0.00 | 46 | 1007.1 |
| 20260506013605 | 24 | 273 | 1.6 | 1.6 | 0.00 | 0.00 | 0.00 | 46 | 1007.0 |
| 20260506013102 | 24 | 274 | 1.6 | 3.2 | 0.00 | 0.00 | 0.00 | 46 | 1006.9 |
| 20260506012558 | 25 | 279 | 0.0 | 3.2 | 0.00 | 0.00 | 0.00 | 44 | 1007.0 |
| 20260506012054 | 24 | 279 | 1.6 | 3.2 | 0.00 | 0.00 | 0.00 | 45 | 1007.0 |
| 20260506011553 | 24 | 281 | 3.2 | 4.8 | 0.00 | 0.00 | 0.00 | 46 | 1007.0 |
| 20260506011048 | 25 | 242 | 0.0 | 3.2 | 0.00 | 0.00 | 0.00 | 45 | 1006.9 |
| 20260506010542 | 25 | 281 | 0.0 | 3.2 | 0.00 | 0.00 | 0.00 | 45 | 1007.0 |
| 20260506010038 | 25 | 309 | 0.0 | 1.6 | 0.00 | 0.00 | 0.00 | 45 | 1006.9 |
| 20260506005535 | 25 | 290 | 0.0 | 1.6 | 0.00 | 0.00 | 0.00 | 45 | 1007.0 |
| 20260506005031 | 25 | 273 | 0.0 | 4.8 | 0.00 | 0.00 | 0.00 | 45 | 1006.8 |
| 20260506004529 | 25 | 298 | 0.0 | 4.8 | 0.00 | 0.00 | 0.00 | 44 | 1006.7 |
| 20260506004025 | 25 | 23 | 3.2 | 3.2 | 0.00 | 0.00 | 0.00 | 46 | 1006.6 |
| 20260506003522 | 25 | 305 | 0.0 | 1.6 | 0.00 | 0.00 | 0.00 | 45 | 1006.6 |
| 20260506003018 | 25 | 253 | 1.6 | 1.6 | 0.00 | 0.00 | 0.00 | 44 | 1006.6 |
| 20260506002514 | 25 | 238 | 0.0 | 1.6 | 0.00 | 0.00 | 0.00 | 45 | 1006.4 |
| 20260506002010 | 25 | 347 | 3.2 | 3.2 | 0.00 | 0.00 | 0.00 | 44 | 1006.8 |
| 20260506001507 | 25 | 274 | 1.6 | 4.8 | 0.00 | 0.00 | 0.00 | 44 | 1006.6 |
| 20260506001004 | 25 | 281 | 1.6 | 3.2 | 0.00 | 0.00 | 0.00 | 44 | 1006.6 |
| 20260506000501 | 25 | 316 | 0.0 | 8.0 | 0.00 | 0.00 | 0.00 | 43 | 1006.5 |
| 20260505235958 | 25 | 244 | 1.6 | 1.6 | 0.00 | 0.00 | 0.00 | 43 | 1006.6 |
| 20260505235456 | 25 | 287 | 1.6 | 3.2 | 0.00 | 0.00 | 0.00 | 45 | 1006.7 |
| 20260505234953 | 25 | 276 | 1.6 | 3.2 | 0.00 | 0.00 | 0.00 | 45 | 1006.6 |
| 20260505234450 | 25 | 262 | 0.0 | 3.2 | 0.00 | 0.00 | 0.00 | 44 | 1006.6 |
| 20260505233947 | 25 | 290 | 0.0 | 1.6 | 0.00 | 0.00 | 0.00 | 44 | 1006.6 |
| 20260505233444 | 25 | 277 | 0.0 | 1.6 | 0.00 | 0.00 | 0.00 | 44 | 1006.5 |
| 20260505232942 | 26 | 291 | 0.0 | 3.2 | 0.00 | 0.00 | 0.00 | 42 | 1006.6 |
| 20260505232440 | 25 | 272 | 1.6 | 1.6 | 0.00 | 0.00 | 0.00 | 42 | 1006.7 |
| 20260505231937 | 26 | 295 | 1.6 | 1.6 | 0.00 | 0.00 | 0.00 | 42 | 1006.7 |
| 20260505231434 | 26 | 271 | 1.6 | 4.8 | 0.00 | 0.00 | 0.00 | 39 | 1006.8 |
| 20260505230932 | 26 | 282 | 1.6 | 3.2 | 0.00 | 0.00 | 0.00 | 42 | 1006.9 |
| 20260505230429 | 26 | 274 | 0.0 | 1.6 | 0.00 | 0.00 | 0.00 | 41 | 1006.8 |
| 20260505225925 | 26 | 285 | 1.6 | 1.6 | 0.00 | 0.00 | 0.00 | 39 | 1007.0 |
| 20260505225423 | 26 | 284 | 1.6 | 4.8 | 0.00 | 0.00 | 0.00 | 42 | 1006.9 |
| 20260505224918 | 26 | 285 | 0.0 | 3.2 | 0.00 | 0.00 | 0.00 | 40 | 1006.7 |
| 20260505224416 | 26 | 29 | 1.6 | 3.2 | 0.00 | 0.00 | 0.00 | 39 | 1006.8 |
| 20260505223912 | 27 | 281 | 0.0 | 1.6 | 0.00 | 0.00 | 0.00 | 42 | 1007.0 |
| 20260505223410 | 27 | 232 | 1.6 | 1.6 | 0.00 | 0.00 | 0.00 | 40 | 1007.0 |
| 20260505222906 | 27 | 268 | 0.0 | 3.2 | 0.00 | 0.00 | 0.00 | 41 | 1006.9 |
| 20260505222402 | 27 | 283 | 1.6 | 1.6 | 0.00 | 0.00 | 0.00 | 39 | 1007.1 |
| 20260505221859 | 27 | 279 | 1.6 | 3.2 | 0.00 | 0.00 | 0.00 | 39 | 1007.2 |
| 20260505221355 | 27 | 273 | 1.6 | 3.2 | 0.00 | 0.00 | 0.00 | 39 | 1007.3 |
| 20260505220853 | 27 | 278 | 0.0 | 1.6 | 0.00 | 0.00 | 0.00 | 42 | 1007.4 |
| 20260505220350 | 27 | 37 | 3.2 | 4.8 | 0.00 | 0.00 | 0.00 | 41 | 1007.3 |
| 20260505215847 | 27 | 275 | 1.6 | 1.6 | 0.00 | 0.00 | 0.00 | 43 | 1007.3 |
| 20260505215345 | 26 | 243 | 1.6 | 1.6 | 0.00 | 0.00 | 0.00 | 42 | 1007.9 |
| 20260505214843 | 27 | 257 | 3.2 | 4.8 | 0.00 | 0.00 | 0.00 | 43 | 1007.5 |
| 20260505214340 | 27 | 285 | 1.6 | 3.2 | 0.00 | 0.00 | 0.00 | 42 | 1007.9 |
| 20260505213837 | 26 | 241 | 0.0 | 1.6 | 0.00 | 0.00 | 0.00 | 42 | 1007.7 |
| 20260505213335 | 27 | 264 | 0.0 | 0.0 | 0.00 | 0.00 | 0.00 | 42 | 1007.7 |
| 20260505212831 | 26 | 255 | 0.0 | 1.6 | 0.00 | 0.00 | 0.00 | 44 | 1008.1 |
| 20260505212328 | 26 | 231 | 1.6 | 3.2 | 0.00 | 0.00 | 0.00 | 44 | 1008.1 |
| 20260505211824 | 25 | 315 | 1.6 | 8.0 | 0.00 | 0.00 | 0.00 | 45 | 1008.1 |
| 20260505211322 | 25 | 340 | 3.2 | 3.2 | 0.00 | 0.00 | 0.00 | 45 | 1008.2 |
| 20260505210818 | 25 | 266 | 1.6 | 3.2 | 0.00 | 0.00 | 0.00 | 45 | 1008.3 |
| 20260505210315 | 25 | 259 | 3.2 | 3.2 | 0.00 | 0.00 | 0.00 | 45 | 1008.4 |
| 20260505205812 | 24 | 254 | 0.0 | 3.2 | 0.00 | 0.00 | 0.00 | 46 | 1008.4 |
| 20260505205310 | 24 | 256 | 3.2 | 4.8 | 0.00 | 0.00 | 0.00 | 48 | 1008.4 |
| 20260505204807 | 25 | 241 | 1.6 | 3.2 | 0.00 | 0.00 | 0.00 | 47 | 1008.5 |
| 20260505204305 | 24 | 235 | 3.2 | 3.2 | 0.00 | 0.00 | 0.00 | 47 | 1008.4 |
| 20260505203802 | 23 | 222 | 1.6 | 4.8 | 0.00 | 0.00 | 0.00 | 48 | 1008.6 |
| 20260505203259 | 23 | 262 | 1.6 | 3.2 | 0.00 | 0.00 | 0.00 | 48 | 1008.6 |
| 20260505202754 | 23 | 138 | 1.6 | 3.2 | 0.00 | 0.00 | 0.00 | 49 | 1008.9 |
| 20260505202251 | 23 | 256 | 1.6 | 3.2 | 0.00 | 0.00 | 0.00 | 49 | 1008.9 |
| 20260505201747 | 23 | 251 | 0.0 | 3.2 | 0.00 | 0.00 | 0.00 | 49 | 1009.1 |
| 20260505201245 | 23 | 217 | 1.6 | 3.2 | 0.00 | 0.00 | 0.00 | 50 | 1009.0 |
| 20260505200743 | 22 | 229 | 3.2 | 3.2 | 0.00 | 0.00 | 0.00 | 50 | 1009.3 |
| 20260505200240 | 22 | 267 | 0.0 | 3.2 | 0.00 | 0.00 | 0.00 | 51 | 1009.2 |
| 20260505195735 | 22 | 82 | 0.0 | 3.2 | 0.00 | 0.00 | 0.00 | 52 | 1009.3 |
| 20260505195233 | 22 | 230 | 1.6 | 3.2 | 0.00 | 0.00 | 0.00 | 52 | 1009.2 |
| 20260505194730 | 22 | 253 | 3.2 | 4.8 | 0.00 | 0.00 | 0.00 | 52 | 1009.4 |
| 20260505194227 | 22 | 253 | 1.6 | 3.2 | 0.00 | 0.00 | 0.00 | 53 | 1009.5 |
| 20260505193722 | 22 | 60 | 1.6 | 3.2 | 0.00 | 0.00 | 0.00 | 53 | 1009.6 |
| 20260505193220 | 21 | 272 | 0.0 | 3.2 | 0.00 | 0.00 | 0.00 | 53 | 1009.5 |
| 20260505192718 | 21 | 247 | 3.2 | 3.2 | 0.00 | 0.00 | 0.00 | 54 | 1009.6 |
| 20260505192216 | 21 | 296 | 1.6 | 3.2 | 0.00 | 0.00 | 0.00 | 54 | 1009.6 |
| 20260505191714 | 21 | 158 | 0.0 | 4.8 | 0.00 | 0.00 | 0.00 | 55 | 1009.8 |
| 20260505191212 | 21 | 246 | 1.6 | 3.2 | 0.00 | 0.00 | 0.00 | 55 | 1009.9 |
| 20260505190708 | 21 | 254 | 1.6 | 4.8 | 0.00 | 0.00 | 0.00 | 55 | 1009.9 |
| 20260505190207 | 21 | 241 | 3.2 | 9.7 | 0.00 | 0.00 | 0.00 | 56 | 1010.0 |
| 20260505185704 | 21 | 268 | 1.6 | 4.8 | 0.00 | 0.00 | 0.00 | 56 | 1009.9 |
| 20260505185201 | 21 | 254 | 0.0 | 1.6 | 0.00 | 0.00 | 0.00 | 57 | 1010.1 |
| 20260505184657 | 20 | 227 | 1.6 | 1.6 | 0.00 | 0.00 | 0.00 | 58 | 1010.1 |
| 20260505184154 | 20 | 99 | 8.0 | 8.0 | 0.00 | 0.00 | 0.00 | 58 | 1010.1 |
| 20260505183651 | 20 | 349 | 3.2 | 8.0 | 0.00 | 0.00 | 0.00 | 60 | 1010.2 |
| 20260505183149 | 19 | 93 | 3.2 | 4.8 | 0.00 | 0.00 | 0.00 | 60 | 1010.3 |
| 20260505182645 | 18 | 304 | 1.6 | 9.7 | 0.00 | 0.00 | 0.00 | 60 | 1010.6 |
| 20260505182142 | 18 | 77 | 0.0 | 3.2 | 0.00 | 0.00 | 0.00 | 62 | 1010.5 |
| 20260505181638 | 18 | 82 | 6.4 | 8.0 | 0.00 | 0.00 | 0.00 | 61 | 1010.3 |
| 20260505181136 | 18 | 279 | 4.8 | 8.0 | 0.00 | 0.00 | 0.00 | 62 | 1010.4 |
| 20260505180632 | 20 | 195 | 3.2 | 4.8 | 0.00 | 0.00 | 0.00 | 59 | 1010.6 |
| 20260505180129 | 20 | 218 | 3.2 | 4.8 | 0.00 | 0.00 | 0.00 | 59 | 1010.4 |
| 20260505175625 | 18 | 118 | 3.2 | 4.8 | 0.00 | 0.00 | 0.00 | 62 | 1010.7 |
| 20260505175122 | 19 | 109 | 6.4 | 9.7 | 0.00 | 0.00 | 0.00 | 61 | 1010.7 |
| 20260505174618 | 18 | 279 | 0.0 | 3.2 | 0.00 | 0.00 | 0.00 | 64 | 1010.9 |
| 20260505174114 | 17 | 81 | 3.2 | 4.8 | 0.00 | 0.00 | 0.00 | 63 | 1010.7 |
| 20260505173611 | 18 | 100 | 4.8 | 9.7 | 0.00 | 0.00 | 0.00 | 61 | 1010.6 |
| 20260505173108 | 17 | 178 | 1.6 | 4.8 | 0.00 | 0.00 | 0.00 | 65 | 1010.6 |
| 20260505172606 | 17 | 72 | 4.8 | 8.0 | 0.00 | 0.00 | 0.00 | 66 | 1010.8 |
| 20260505172103 | 16 | 141 | 4.8 | 4.8 | 0.00 | 0.00 | 0.00 | 67 | 1010.8 |
| 20260505171557 | 16 | 100 | 3.2 | 3.2 | 0.00 | 0.00 | 0.00 | 68 | 1011.1 |
| 20260505171054 | 16 | 242 | 0.0 | 1.6 | 0.00 | 0.00 | 0.00 | 69 | 1011.0 |
| 20260505170551 | 16 | 266 | 0.0 | 1.6 | 0.00 | 0.00 | 0.00 | 69 | 1010.8 |
| 20260505170047 | 16 | 223 | 3.2 | 3.2 | 0.00 | 0.00 | 0.00 | 69 | 1010.9 |
| 20260505165542 | 16 | 270 | 0.0 | 1.6 | 0.00 | 0.00 | 0.00 | 68 | 1010.9 |
| 20260505165039 | 16 | 268 | 1.6 | 1.6 | 0.00 | 0.00 | 0.00 | 70 | 1010.9 |
| 20260505164535 | 16 | 262 | 1.6 | 1.6 | 0.00 | 0.00 | 0.00 | 69 | 1010.9 |
| 20260505164032 | 16 | 267 | 0.0 | 1.6 | 0.00 | 0.00 | 0.00 | 69 | 1011.1 |
| 20260505163531 | 16 | 282 | 0.0 | 1.6 | 0.00 | 0.00 | 0.00 | 70 | 1011.0 |
| 20260505163027 | 15 | 269 | 0.0 | 1.6 | 0.00 | 0.00 | 0.00 | 72 | 1011.1 |
| 20260505162521 | 15 | 212 | 0.0 | 1.6 | 0.00 | 0.00 | 0.00 | 73 | 1011.1 |
| 20260505162018 | 15 | 323 | 0.0 | 1.6 | 0.00 | 0.00 | 0.00 | 73 | 1011.1 |
| 20260505161515 | 15 | 124 | 1.6 | 3.2 | 0.00 | 0.00 | 0.00 | 74 | 1011.1 |
| 20260505161012 | 15 | 289 | 1.6 | 1.6 | 0.00 | 0.00 | 0.00 | 74 | 1011.2 |
| 20260505160510 | 15 | 304 | 0.0 | 1.6 | 0.00 | 0.00 | 0.00 | 74 | 1011.1 |
| 20260505152940 | 15 | 270 | 0.0 | 1.6 | 0.00 | 0.00 | 0.00 | 76 | 1011.1 |
| 20260505152437 | 15 | 278 | 0.0 | 1.6 | 0.00 | 0.00 | 0.00 | 76 | 1011.0 |
| 20260505151937 | 15 | 289 | 0.0 | 1.6 | 0.00 | 0.00 | 0.00 | 78 | 1011.1 |
| 20260505151428 | 15 | 299 | 0.0 | 1.6 | 0.00 | 0.00 | 0.00 | 77 | 1011.2 |
| 20260505150925 | 15 | 284 | 0.0 | 0.0 | 0.00 | 0.00 | 0.00 | 77 | 1011.1 |
| 20260505150422 | 14 | 284 | 0.0 | 0.0 | 0.00 | 0.00 | 0.00 | 77 | 1011.0 |
| 20260505140352 | 14 | 280 | 0.0 | 0.0 | 0.00 | 0.00 | 0.00 | 79 | 1010.6 |
| 20260505124805 | 13 | 270 | 0.0 | 1.6 | 0.00 | 0.00 | 0.00 | 81 | 1010.0 |
| 20260505124303 | 13 | 270 | 0.0 | 0.0 | 0.00 | 0.00 | 0.00 | 81 | 1009.8 |
| 20260505123758 | 13 | 270 | 0.0 | 0.0 | 0.00 | 0.00 | 0.00 | 81 | 1009.9 |
| 20260505123255 | 13 | 270 | 0.0 | 0.0 | 0.00 | 0.00 | 0.00 | 80 | 1009.9 |
| 20260505122751 | 13 | 270 | 0.0 | 0.0 | 0.00 | 0.00 | 0.00 | 80 | 1009.7 |
| 20260505122249 | 13 | 270 | 0.0 | 0.0 | 0.00 | 0.00 | 0.00 | 80 | 1009.7 |
| 20260505121745 | 13 | 270 | 0.0 | 0.0 | 0.00 | 0.00 | 0.00 | 80 | 1009.6 |
| 20260505121242 | 13 | 270 | 0.0 | 0.0 | 0.00 | 0.00 | 0.00 | 80 | 1009.7 |
| 20260505120738 | 13 | 270 | 0.0 | 1.6 | 0.00 | 0.00 | 0.00 | 80 | 1009.6 |
| 20260505120235 | 13 | 270 | 0.0 | 1.6 | 0.00 | 0.00 | 0.00 | 80 | 1009.7 |
| 20260505115733 | 13 | 270 | 0.0 | 1.6 | 0.00 | 0.00 | 0.00 | 80 | 1009.5 |
| 20260505115231 | 13 | 270 | 0.0 | 1.6 | 0.00 | 0.00 | 0.00 | 80 | 1009.5 |
| 20260505114728 | 13 | 270 | 0.0 | 1.6 | 0.00 | 0.00 | 0.00 | 80 | 1009.5 |
| 20260505114224 | 13 | 270 | 0.0 | 1.6 | 0.00 | 0.00 | 0.00 | 80 | 1009.4 |
| 20260505113721 | 13 | 270 | 0.0 | 0.0 | 0.00 | 0.00 | 0.00 | 80 | 1009.5 |
| 20260505113217 | 13 | 270 | 0.0 | 0.0 | 0.00 | 0.00 | 0.00 | 80 | 1009.4 |
| 20260505112714 | 13 | 270 | 0.0 | 0.0 | 0.00 | 0.00 | 0.00 | 80 | 1009.4 |
| 20260505112212 | 13 | 270 | 0.0 | 0.0 | 0.00 | 0.00 | 0.00 | 80 | 1009.3 |
| 20260505111712 | 13 | 270 | 0.0 | 1.6 | 0.00 | 0.00 | 0.00 | 79 | 1009.5 |
| 20260505111208 | 13 | 270 | 0.0 | 0.0 | 0.00 | 0.00 | 0.00 | 80 | 1009.4 |
| 20260505110704 | 13 | 271 | 0.0 | 0.0 | 0.00 | 0.00 | 0.00 | 79 | 1009.2 |
| 20260505110201 | 13 | 270 | 0.0 | 0.0 | 0.00 | 0.00 | 0.00 | 79 | 1009.4 |
| 20260505102137 | 14 | 270 | 0.0 | 1.6 | 0.00 | 0.00 | 0.00 | 79 | 1009.2 |
| 20260505101636 | 14 | 270 | 0.0 | 0.0 | 0.00 | 0.00 | 0.00 | 78 | 1009.1 |
| 20260505101131 | 14 | 270 | 0.0 | 0.0 | 0.00 | 0.00 | 0.00 | 79 | 1009.2 |
| 20260505100627 | 14 | 269 | 0.0 | 0.0 | 0.00 | 0.00 | 0.00 | 79 | 1009.3 |
| 20260505100125 | 14 | 271 | 0.0 | 0.0 | 0.00 | 0.00 | 0.00 | 79 | 1009.2 |
| 20260505095621 | 14 | 271 | 0.0 | 1.6 | 0.00 | 0.00 | 0.00 | 79 | 1009.1 |
| 20260505095118 | 14 | 271 | 0.0 | 0.0 | 0.00 | 0.00 | 0.00 | 79 | 1009.2 |
| 20260505094614 | 14 | 271 | 0.0 | 0.0 | 0.00 | 0.00 | 0.00 | 79 | 1009.1 |
| 20260505094110 | 14 | 271 | 0.0 | 1.6 | 0.00 | 0.00 | 0.00 | 79 | 1009.2 |
| 20260505093607 | 14 | 269 | 0.0 | 1.6 | 0.00 | 0.00 | 0.00 | 79 | 1009.2 |
| 20260505093104 | 14 | 269 | 0.0 | 1.6 | 0.00 | 0.00 | 0.00 | 79 | 1009.3 |
| 20260505092601 | 14 | 269 | 1.6 | 1.6 | 0.00 | 0.00 | 0.00 | 79 | 1009.3 |
| 20260505092100 | 14 | 268 | 1.6 | 1.6 | 0.00 | 0.00 | 0.00 | 79 | 1009.3 |
| 20260505091556 | 14 | 278 | 0.0 | 1.6 | 0.00 | 0.00 | 0.00 | 79 | 1009.2 |
| 20260505091055 | 15 | 279 | 0.0 | 0.0 | 0.00 | 0.00 | 0.00 | 79 | 1009.3 |
| 20260505090552 | 15 | 277 | 0.0 | 0.0 | 0.00 | 0.00 | 0.00 | 78 | 1009.2 |
| 20260505090050 | 15 | 277 | 0.0 | 0.0 | 0.00 | 0.00 | 0.00 | 78 | 1009.3 |
| 20260505085547 | 15 | 278 | 0.0 | 0.0 | 0.00 | 0.00 | 0.00 | 78 | 1009.1 |
| 20260505085045 | 15 | 278 | 0.0 | 0.0 | 0.00 | 0.00 | 0.00 | 78 | 1009.1 |
| 20260505084543 | 15 | 279 | 0.0 | 0.0 | 0.00 | 0.00 | 0.00 | 78 | 1009.3 |
| 20260505084041 | 15 | 279 | 0.0 | 1.6 | 0.00 | 0.00 | 0.00 | 79 | 1009.3 |
| 20260505083538 | 15 | 278 | 0.0 | 1.6 | 0.00 | 0.00 | 0.00 | 78 | 1009.3 |
| 20260505083034 | 15 | 278 | 0.0 | 1.6 | 0.00 | 0.00 | 0.00 | 79 | 1009.6 |
| 20260505082530 | 15 | 277 | 1.6 | 1.6 | 0.00 | 0.00 | 0.00 | 78 | 1009.5 |
| 20260505082027 | 15 | 278 | 0.0 | 0.0 | 0.00 | 0.00 | 0.00 | 79 | 1009.4 |
| 20260505081524 | 15 | 278 | 0.0 | 0.0 | 0.00 | 0.00 | 0.00 | 79 | 1009.5 |
| 20260505081021 | 15 | 278 | 0.0 | 1.6 | 0.00 | 0.00 | 0.00 | 79 | 1009.2 |
| 20260505080517 | 15 | 279 | 1.6 | 1.6 | 0.00 | 0.00 | 0.00 | 78 | 1009.4 |
| 20260505080014 | 15 | 267 | 1.6 | 1.6 | 0.00 | 0.00 | 0.00 | 78 | 1009.8 |
| 20260505075510 | 15 | 266 | 1.6 | 1.6 | 0.00 | 0.00 | 0.00 | 78 | 1009.5 |
| 20260505075007 | 15 | 271 | 0.0 | 1.6 | 0.00 | 0.00 | 0.00 | 79 | 1009.5 |
| 20260505074504 | 15 | 271 | 1.6 | 1.6 | 0.00 | 0.00 | 0.00 | 79 | 1009.5 |
| 20260505074001 | 15 | 267 | 0.0 | 1.6 | 0.00 | 0.00 | 0.00 | 79 | 1009.4 |
| 20260505073458 | 15 | 272 | 1.6 | 3.2 | 0.00 | 0.00 | 0.00 | 79 | 1009.4 |
| 20260505072956 | 15 | 278 | 0.0 | 1.6 | 0.00 | 0.00 | 0.00 | 79 | 1009.6 |
| 20260505072452 | 15 | 278 | 0.0 | 1.6 | 0.00 | 0.00 | 0.00 | 79 | 1009.6 |
| 20260505071948 | 15 | 283 | 1.6 | 3.2 | 0.00 | 0.00 | 0.00 | 78 | 1009.4 |
| 20260505071444 | 15 | 278 | 1.6 | 1.6 | 0.00 | 0.00 | 0.00 | 78 | 1009.3 |
| 20260505070942 | 15 | 291 | 0.0 | 1.6 | 0.00 | 0.00 | 0.00 | 78 | 1009.3 |
| 20260505070439 | 15 | 292 | 1.6 | 1.6 | 0.00 | 0.00 | 0.00 | 78 | 1009.4 |
| 20260505065934 | 15 | 291 | 0.0 | 1.6 | 0.00 | 0.00 | 0.00 | 78 | 1009.4 |
| 20260505065431 | 15 | 292 | 0.0 | 0.0 | 0.00 | 0.00 | 0.00 | 79 | 1009.2 |
| 20260505064928 | 15 | 292 | 0.0 | 0.0 | 0.00 | 0.00 | 0.00 | 80 | 1009.4 |
| 20260505064425 | 15 | 292 | 0.0 | 0.0 | 0.00 | 0.00 | 0.00 | 79 | 1009.2 |
| 20260505063923 | 15 | 292 | 0.0 | 0.0 | 0.00 | 0.00 | 0.00 | 79 | 1009.4 |
| 20260505063419 | 15 | 292 | 0.0 | 0.0 | 0.00 | 0.00 | 0.00 | 79 | 1008.9 |
| 20260505062916 | 15 | 292 | 0.0 | 0.0 | 0.00 | 0.00 | 0.00 | 79 | 1009.2 |
| 20260505062413 | 15 | 292 | 0.0 | 1.6 | 0.00 | 0.00 | 0.00 | 79 | 1008.9 |
| 20260505061910 | 15 | 293 | 1.6 | 1.6 | 0.00 | 0.00 | 0.00 | 79 | 1009.0 |
| 20260505061408 | 15 | 295 | 0.0 | 1.6 | 0.00 | 0.00 | 0.00 | 78 | 1008.8 |
| 20260505060905 | 15 | 295 | 0.0 | 0.0 | 0.00 | 0.00 | 0.00 | 77 | 1009.0 |
| 20260505060402 | 15 | 296 | 0.0 | 0.0 | 0.00 | 0.00 | 0.00 | 77 | 1008.9 |
| 20260505055858 | 15 | 295 | 0.0 | 0.0 | 0.00 | 0.00 | 0.00 | 77 | 1009.0 |
| 20260505055354 | 15 | 295 | 0.0 | 0.0 | 0.00 | 0.00 | 0.00 | 77 | 1008.8 |
| 20260505054851 | 16 | 296 | 0.0 | 0.0 | 0.00 | 0.00 | 0.00 | 77 | 1009.0 |
| 20260505054349 | 16 | 296 | 0.0 | 1.6 | 0.00 | 0.00 | 0.00 | 75 | 1008.7 |
| 20260505053847 | 16 | 296 | 0.0 | 0.0 | 0.00 | 0.00 | 0.00 | 75 | 1008.6 |
| 20260505053344 | 16 | 294 | 0.0 | 1.6 | 0.00 | 0.00 | 0.00 | 75 | 1008.6 |
| 20260505052840 | 16 | 293 | 0.0 | 0.0 | 0.00 | 0.00 | 0.00 | 75 | 1008.5 |
| 20260505052337 | 16 | 288 | 1.6 | 1.6 | 0.00 | 0.00 | 0.00 | 75 | 1008.6 |
| 20260505051834 | 16 | 289 | 0.0 | 0.0 | 0.00 | 0.00 | 0.00 | 74 | 1008.5 |
| 20260505051332 | 16 | 290 | 0.0 | 0.0 | 0.00 | 0.00 | 0.00 | 74 | 1008.7 |
| 20260505050830 | 16 | 290 | 0.0 | 0.0 | 0.00 | 0.00 | 0.00 | 74 | 1008.5 |
| 20260505050328 | 16 | 261 | 0.0 | 1.6 | 0.00 | 0.00 | 0.00 | 73 | 1008.3 |
| 20260505041758 | 18 | 277 | 1.6 | 1.6 | 0.00 | 0.00 | 0.00 | 69 | 1007.7 |
| 20260505041255 | 18 | 268 | 1.6 | 3.2 | 0.00 | 0.00 | 0.00 | 68 | 1007.4 |
| 20260505040752 | 18 | 264 | 0.0 | 1.6 | 0.00 | 0.00 | 0.00 | 67 | 1007.4 |
| 20260505040250 | 18 | 280 | 0.0 | 1.6 | 0.00 | 0.00 | 0.00 | 67 | 1007.1 |
| 20260505035746 | 18 | 276 | 0.0 | 1.6 | 0.00 | 0.00 | 0.00 | 67 | 1007.1 |
| 20260505035242 | 18 | 292 | 0.0 | 1.6 | 0.00 | 0.00 | 0.00 | 67 | 1006.9 |
| 20260505034739 | 19 | 266 | 1.6 | 3.2 | 0.00 | 0.00 | 0.00 | 66 | 1006.8 |
| 20260505034236 | 19 | 258 | 3.2 | 4.8 | 0.00 | 0.00 | 0.00 | 65 | 1006.7 |
| 20260505033733 | 19 | 277 | 1.6 | 1.6 | 0.00 | 0.00 | 0.00 | 65 | 1006.7 |
| 20260505033231 | 19 | 264 | 1.6 | 1.6 | 0.00 | 0.00 | 0.00 | 65 | 1006.7 |
| 20260505032728 | 20 | 281 | 1.6 | 3.2 | 0.00 | 0.00 | 0.00 | 64 | 1006.5 |
| 20260505032224 | 20 | 264 | 4.8 | 8.0 | 0.00 | 0.00 | 0.00 | 63 | 1006.2 |
| 20260505031722 | 20 | 285 | 3.2 | 3.2 | 0.00 | 0.00 | 0.00 | 63 | 1006.3 |
| 20260505031218 | 20 | 298 | 1.6 | 4.8 | 0.00 | 0.00 | 0.00 | 64 | 1006.0 |
| 20260505030715 | 20 | 281 | 1.6 | 1.6 | 0.00 | 0.00 | 0.00 | 62 | 1006.1 |
| 20260505030211 | 20 | 300 | 0.0 | 0.0 | 0.00 | 0.00 | 0.00 | 61 | 1005.8 |
| 20260505025707 | 20 | 339 | 3.2 | 3.2 | 0.00 | 0.00 | 0.00 | 61 | 1005.8 |
| 20260505025205 | 21 | 290 | 0.0 | 0.0 | 0.00 | 0.00 | 0.00 | 61 | 1005.6 |
| 20260505024703 | 21 | 286 | 3.2 | 3.2 | 0.00 | 0.00 | 0.00 | 61 | 1005.7 |
| 20260505024200 | 21 | 287 | 0.0 | 1.6 | 0.00 | 0.00 | 0.00 | 60 | 1005.7 |
| 20260505023657 | 21 | 289 | 0.0 | 1.6 | 0.00 | 0.00 | 0.00 | 59 | 1005.7 |
| 20260505023154 | 21 | 291 | 1.6 | 3.2 | 0.00 | 0.00 | 0.00 | 58 | 1005.5 |
| 20260505022652 | 21 | 295 | 0.0 | 1.6 | 0.00 | 0.00 | 0.00 | 58 | 1005.2 |
| 20260505022149 | 21 | 291 | 1.6 | 1.6 | 0.00 | 0.00 | 0.00 | 58 | 1005.2 |
| 20260505021645 | 21 | 277 | 1.6 | 1.6 | 0.00 | 0.00 | 0.00 | 58 | 1005.2 |
| 20260505021142 | 21 | 292 | 1.6 | 1.6 | 0.00 | 0.00 | 0.00 | 59 | 1005.1 |
| 20260505020638 | 21 | 284 | 0.0 | 1.6 | 0.00 | 0.00 | 0.00 | 59 | 1005.1 |
| 20260505020134 | 21 | 281 | 0.0 | 3.2 | 0.00 | 0.00 | 0.00 | 59 | 1005.0 |
| 20260505015631 | 21 | 284 | 3.2 | 3.2 | 0.00 | 0.00 | 0.00 | 60 | 1005.2 |
| 20260505015128 | 21 | 288 | 1.6 | 3.2 | 0.00 | 0.00 | 0.00 | 60 | 1005.1 |
| 20260505014625 | 21 | 309 | 1.6 | 3.2 | 0.00 | 0.00 | 0.00 | 60 | 1005.0 |